GPS BIIF-9

Last updated on Mon Sep 15 2025 00:02:34 GMT+0000 (Coordinated Universal Time)

1 40534U 15013A 25256.84624211 .00000035 00000+0 00000+0 0 9990 2 40534 53.2198 215.6092 0102257 36.1900 324.4778 2.00567702 76284
UTC large
Height (km)
Speed (km/s)
/
Latitude / Longitude
Inclination (degrees)
Orbital Period (minutes)
Azimuth
Elevation
Range (km)
Doppler Factor

Next 0 passes for location: London (51.5072 / 0.1276)

Sorry there are no passes over London.